,,Stat6,,Stat2,,Stat8,,Stat9,,Stat10,,Wind1,,Wind1,
time,status,PA1M_AVG,status,PR1M_SUM,status,RH1M_AVG,status,SR1M_AVG,status,TA1M_AVG,status,W1dAve1m,status,W1sAve1m,
2008-11-08, 00:00:00,VALID,916.492,VALID,0,VALID,100,VALID,0.0169808,VALID,19.5755,VALID,15,VALID,1.86737,
2008-11-08, 00:01:01,VALID,916.512,VALID,0,VALID,100,VALID,-0.0169808,VALID,19.5855,VALID,24,VALID,1.86261,
2008-11-08, 00:02:01,VALID,916.503,VALID,0,VALID,100,VALID,0,VALID,19.6082,VALID,14,VALID,0.717115,
2008-11-08, 00:03:00,VALID,916.489,VALID,0,VALID,100,VALID,0,VALID,19.6214,VALID,24,VALID,0.566746,
2008-11-08, 00:04:01,VALID,916.454,VALID,0,VALID,100,VALID,-0.0169808,VALID,19.5922,VALID,8,VALID,1.25205,
2008-11-08, 00:05:01,VALID,916.43,VALID,0,VALID,100,VALID,0.0169808,VALID,19.5853,VALID,26,VALID,1.17169,
2008-11-08, 00:06:00,VALID,916.409,VALID,0,VALID,100,VALID,0.0169808,VALID,19.595,VALID,15,VALID,0.990854,
2008-11-08, 00:07:01,VALID,916.406,VALID,0,VALID,100,VALID,0,VALID,19.5887,VALID,24,VALID,1.88876,
2008-11-08, 00:08:01,VALID,916.395,VALID,0,VALID,100,VALID,0,VALID,19.5952,VALID,4,VALID,0.866824,
2008-11-08, 00:09:01,VALID,916.366,VALID,0,VALID,100,VALID,0,VALID,19.5987,VALID,11,VALID,0.838086,
2008-11-08, 00:10:01,VALID,916.341,VALID,0,VALID,100,VALID,0,VALID,19.579,VALID,23,VALID,1.11364,
2008-11-08, 00:11:01,VALID,916.318,VALID,0,VALID,100,VALID,0.0169808,VALID,19.566,VALID,20,VALID,2.28052,
2008-11-08, 00:12:01,VALID,916.282,VALID,0,VALID,100,VALID,0.0169808,VALID,19.5426,VALID,17,VALID,2.13802,
2008-11-08, 00:13:01,VALID,916.255,VALID,0,VALID,100,VALID,0.0169808,VALID,19.5491,VALID,19,VALID,1.21264,
2008-11-08, 00:14:01,VALID,916.254,VALID,0,VALID,100,VALID,0,VALID,19.5658,VALID,30,VALID,0.145008,
2008-11-08, 00:15:01,VALID,916.228,VALID,0,VALID,100,VALID,0,VALID,19.5855,VALID,29,VALID,0.158026,
2008-11-08, 00:16:01,VALID,916.228,VALID,0,VALID,100,VALID,0,VALID,19.5818,VALID,14,VALID,0.158249,
2008-11-08, 00:17:00,VALID,916.205,VALID,0,VALID,100,VALID,0.0169808,VALID,19.5945,VALID,319,VALID,0,
2008-11-08, 00:18:00,VALID,916.183,VALID,0,VALID,100,VALID,0.0509425,VALID,19.608,VALID,36,VALID,0.452009,
2008-11-08, 00:19:00,VALID,916.184,VALID,0,VALID,100,VALID,0,VALID,19.605,VALID,21,VALID,0.245998,
2008-11-08, 00:20:00,VALID,916.167,VALID,0,VALID,100,VALID,0.0169808,VALID,19.6047,VALID,23,VALID,0.34375,
2008-11-08, 00:21:00,VALID,916.164,VALID,0,VALID,100,VALID,0.0339617,VALID,19.6077,VALID,359,VALID,0.015439,
2008-11-08, 00:22:00,VALID,916.167,VALID,0,VALID,100,VALID,0.0509425,VALID,19.6274,VALID,257,VALID,0,
2008-11-08, 00:23:00,VALID,916.145,VALID,0,VALID,100,VALID,0.0169808,VALID,19.5972,VALID,211,VALID,0,
2008-11-08, 00:24:00,VALID,916.13,VALID,0,VALID,100,VALID,0.0339617,VALID,19.6234,VALID,14,VALID,0.230196,
2008-11-08, 00:25:00,VALID,916.136,VALID,0,VALID,100,VALID,0.0339617,VALID,19.6172,VALID,25,VALID,1.25164,
2008-11-08, 00:26:00,VALID,916.132,VALID,0,VALID,100,VALID,0.0169808,VALID,19.6077,VALID,28,VALID,0.878348,
2008-11-08, 00:27:00,VALID,916.133,VALID,0,VALID,100,VALID,0.0169808,VALID,19.6017,VALID,22,VALID,0.668064,
2008-11-08, 00:28:00,VALID,916.114,VALID,0,VALID,100,VALID,0.0169808,VALID,19.5987,VALID,15,VALID,0.717115,
2008-11-08, 00:29:00,VALID,916.114,VALID,0,VALID,100,VALID,-0.0169808,VALID,19.6112,VALID,2,VALID,0.200076,
2008-11-08, 00:30:00,VALID,916.116,VALID,0,VALID,100,VALID,0.0509425,VALID,19.6112,VALID,340,VALID,0.404762,
2008-11-08, 00:31:00,VALID,916.097,VALID,0,VALID,100,VALID,0,VALID,19.6147,VALID,354,VALID,0.261806,
2008-11-08, 00:32:00,VALID,916.097,VALID,0,VALID,100,VALID,0.0509425,VALID,19.6147,VALID,18,VALID,1.44607,
2008-11-08, 00:33:00,VALID,916.082,VALID,0,VALID,100,VALID,0,VALID,19.5855,VALID,11,VALID,1.3375,
2008-11-08, 00:34:00,VALID,916.092,VALID,0,VALID,100,VALID,0,VALID,19.5531,VALID,43,VALID,0.324405,
2008-11-08, 00:35:00,VALID,916.093,VALID,0,VALID,100,VALID,0,VALID,19.5401,VALID,338,VALID,0.0363991,
2008-11-08, 00:36:00,VALID,916.098,VALID,0,VALID,100,VALID,0,VALID,19.5496,VALID,9,VALID,0.00436047,
2008-11-08, 00:37:00,VALID,916.096,VALID,0.2,VALID,100,VALID,0,VALID,19.5755,VALID,23,VALID,0.220655,
2008-11-08, 00:38:00,VALID,916.074,VALID,0,VALID,100,VALID,0,VALID,19.592,VALID,360,VALID,0.209223,
2008-11-08, 00:39:00,VALID,916.079,VALID,0,VALID,100,VALID,0,VALID,19.6087,VALID,348,VALID,0.0884811,
2008-11-08, 00:40:00,VALID,916.071,VALID,0,VALID,100,VALID,0.0169808,VALID,19.6147,VALID,52,VALID,0,
2008-11-08, 00:41:00,VALID,916.072,VALID,0.2,VALID,100,VALID,-0.0169808,VALID,19.6145,VALID,270,VALID,0.00451389,
2008-11-08, 00:42:00,VALID,916.028,VALID,0.2,VALID,100,VALID,0,VALID,19.6179,VALID,59,VALID,0.720022,
2008-11-08, 00:43:00,VALID,916.019,VALID,0,VALID,100,VALID,0.0509425,VALID,19.6017,VALID,6,VALID,1.03162,
2008-11-08, 00:44:00,VALID,916.033,VALID,0,VALID,100,VALID,0,VALID,19.5758,VALID,344,VALID,0.250206,
2008-11-08, 00:45:00,VALID,916.017,VALID,0,VALID,100,VALID,0,VALID,19.5723,VALID,217,VALID,0.0708576,
2008-11-08, 00:46:00,VALID,916.02,VALID,0.2,VALID,100,VALID,0,VALID,19.5825,VALID,185,VALID,0,
2008-11-08, 00:47:00,VALID,916.01,VALID,0,VALID,100,VALID,-0.0169808,VALID,19.5758,VALID,185,VALID,0,
2008-11-08, 00:48:00,VALID,916.005,VALID,0,VALID,100,VALID,0,VALID,19.576,VALID,56,VALID,0,
2008-11-08, 00:49:00,VALID,916.016,VALID,0,VALID,100,VALID,0,VALID,19.5695,VALID,297,VALID,0.0415483,
2008-11-08, 00:50:00,VALID,916.016,VALID,0,VALID,100,VALID,0,VALID,19.5628,VALID,244,VALID,0,
2008-11-08, 00:51:00,VALID,916.031,VALID,0,VALID,100,VALID,0,VALID,19.5593,VALID,3,VALID,0.00121528,
2008-11-08, 00:52:00,VALID,916.049,VALID,0,VALID,100,VALID,-0.0169808,VALID,19.5857,VALID,346,VALID,0,
2008-11-08, 00:53:00,VALID,916.034,VALID,0,VALID,100,VALID,0,VALID,19.5982,VALID,358,VALID,0,
2008-11-08, 00:54:00,VALID,916.022,VALID,0,VALID,100,VALID,0.0169808,VALID,19.6119,VALID,26,VALID,0.0666921,
2008-11-08, 00:55:00,VALID,916.02,VALID,0,VALID,100,VALID,-0.0169808,VALID,19.5882,VALID,31,VALID,0.27907,
2008-11-08, 00:56:00,VALID,916.04,VALID,0,VALID,100,VALID,0.0169808,VALID,19.5887,VALID,302,VALID,0.14169,
2008-11-08, 00:57:00,VALID,916.004,VALID,0,VALID,100,VALID,-0.0169808,VALID,19.5823,VALID,324,VALID,0.49256,
2008-11-08, 00:58:00,VALID,916.022,VALID,0,VALID,100,VALID,-0.0509425,VALID,19.5895,VALID,31,VALID,0.370276,
2008-11-08, 00:59:00,VALID,916.032,VALID,0,VALID,100,VALID,0.0169808,VALID,19.5498,VALID,313,VALID,0.229936,
2008-11-08, 01:00:00,VALID,916.005,VALID,0,VALID,100,VALID,0,VALID,19.5139,VALID,186,VALID,0,
2008-11-08, 01:01:00,VALID,916.001,VALID,0,VALID,100,VALID,0,VALID,19.4852,VALID,52,VALID,0.171303,
2008-11-08, 01:02:00,VALID,916.007,VALID,0,VALID,100,VALID,-0.0169808,VALID,19.4949,VALID,356,VALID,0.205221,
2008-11-08, 01:03:00,VALID,915.992,VALID,0,VALID,100,VALID,-0.0169808,VALID,19.4882,VALID,21,VALID,1.27089,
2008-11-08, 01:04:00,VALID,915.991,VALID,0,VALID,100,VALID,0.0169808,VALID,19.4817,VALID,9,VALID,0.584121,
2008-11-08, 01:05:00,VALID,916.009,VALID,0,VALID,100,VALID,-0.0509425,VALID,19.457,VALID,333,VALID,0.335938,
2008-11-08, 01:06:00,VALID,915.998,VALID,0,VALID,100,VALID,-0.0849042,VALID,19.4507,VALID,40,VALID,0.677734,
2008-11-08, 01:07:00,VALID,915.993,VALID,0,VALID,100,VALID,-0.101885,VALID,19.4475,VALID,32,VALID,0.238095,
2008-11-08, 01:08:00,VALID,916.005,VALID,0,VALID,100,VALID,-0.0679233,VALID,19.4767,VALID,25,VALID,0,
2008-11-08, 01:09:00,VALID,915.975,VALID,0,VALID,100,VALID,-0.118866,VALID,19.5061,VALID,23,VALID,0.0196265,
2008-11-08, 01:10:00,VALID,915.97,VALID,0,VALID,100,VALID,-0.135847,VALID,19.4827,VALID,19,VALID,0.104421,
2008-11-08, 01:11:00,VALID,915.946,VALID,0,VALID,100,VALID,-0.101885,VALID,19.4704,VALID,16,VALID,0.46005,
2008-11-08, 01:12:00,VALID,915.945,VALID,0,VALID,100,VALID,-0.101885,VALID,19.4574,VALID,21,VALID,0.00228659,
2008-11-08, 01:13:00,VALID,915.944,VALID,0,VALID,100,VALID,-0.101885,VALID,19.4699,VALID,10,VALID,0.0024858,
2008-11-08, 01:14:00,VALID,915.914,VALID,0,VALID,100,VALID,-0.101885,VALID,19.4445,VALID,312,VALID,0.711846,
2008-11-08, 01:15:00,VALID,915.904,VALID,0,VALID,100,VALID,-0.135847,VALID,19.4023,VALID,317,VALID,0.650534,
2008-11-08, 01:16:00,VALID,915.919,VALID,0,VALID,100,VALID,-0.118866,VALID,19.4185,VALID,51,VALID,0.0838914,
2008-11-08, 01:17:00,VALID,915.914,VALID,0,VALID,100,VALID,-0.0849042,VALID,19.4278,VALID,26,VALID,0,
2008-11-08, 01:18:00,VALID,915.895,VALID,0,VALID,100,VALID,-0.101885,VALID,19.4597,VALID,19,VALID,0,
2008-11-08, 01:19:00,VALID,915.892,VALID,0,VALID,100,VALID,-0.0849042,VALID,19.4694,VALID,341,VALID,0.589208,
2008-11-08, 01:20:00,VALID,915.864,VALID,0,VALID,100,VALID,0,VALID,19.436,VALID,24,VALID,0.480208,
2008-11-08, 01:21:00,VALID,915.854,VALID,0,VALID,100,VALID,0,VALID,19.4335,VALID,27,VALID,0.0120908,
2008-11-08, 01:22:00,VALID,915.845,VALID,0,VALID,100,VALID,0.0169808,VALID,19.423,VALID,37,VALID,0.015997,
2008-11-08, 01:23:00,VALID,915.854,VALID,0,VALID,100,VALID,0,VALID,19.4195,VALID,23,VALID,0.101563,
2008-11-08, 01:24:00,VALID,915.843,VALID,0,VALID,100,VALID,-0.0169808,VALID,19.4268,VALID,27,VALID,0.142223,
2008-11-08, 01:25:00,VALID,915.841,VALID,0,VALID,100,VALID,0,VALID,19.423,VALID,8,VALID,0,
2008-11-08, 01:26:00,VALID,915.856,VALID,0,VALID,100,VALID,0,VALID,19.4265,INVALID,360,VALID,0,
2008-11-08, 01:27:00,VALID,915.838,VALID,0,VALID,100,VALID,0.0169808,VALID,19.4138,VALID,12,VALID,0.00130208,
2008-11-08, 01:28:00,VALID,915.83,VALID,0,VALID,100,VALID,0,VALID,19.4133,VALID,32,VALID,0,
2008-11-08, 01:29:00,VALID,915.805,VALID,0,VALID,100,VALID,-0.0339617,VALID,19.4555,VALID,31,VALID,0.0722656,
2008-11-08, 01:30:00,VALID,915.795,VALID,0,VALID,100,VALID,0.0169808,VALID,19.4585,VALID,31,VALID,0,
2008-11-08, 01:31:00,VALID,915.77,VALID,0,VALID,100,VALID,0,VALID,19.4622,VALID,30,VALID,0,
2008-11-08, 01:32:00,VALID,915.746,VALID,0,VALID,100,VALID,0,VALID,19.446,VALID,35,VALID,0,
2008-11-08, 01:33:00,VALID,915.709,VALID,0,VALID,100,VALID,-0.0169808,VALID,19.3973,VALID,58,VALID,0.0400152,
2008-11-08, 01:34:00,VALID,915.69,VALID,0,VALID,100,VALID,0,VALID,19.3874,VALID,329,VALID,0.346168,
2008-11-08, 01:35:00,VALID,915.671,VALID,0,VALID,100,VALID,-0.0509425,VALID,19.3424,VALID,309,VALID,0.0459872,
2008-11-08, 01:36:00,VALID,915.672,VALID,0,VALID,100,VALID,0.0169808,VALID,19.3324,VALID,153,VALID,0.0479403,
2008-11-08, 01:37:00,VALID,915.644,VALID,0,VALID,100,VALID,0,VALID,19.3489,VALID,11,VALID,0.0448191,
2008-11-08, 01:38:00,VALID,915.629,VALID,0,VALID,100,VALID,0.0339617,VALID,19.3489,VALID,37,VALID,0,
2008-11-08, 01:39:00,VALID,915.613,VALID,0,VALID,100,VALID,0.0169808,VALID,19.3681,VALID,25,VALID,0.161644,
2008-11-08, 01:40:00,VALID,915.582,VALID,0,VALID,100,VALID,0,VALID,19.3616,VALID,17,VALID,0,
2008-11-08, 01:41:00,VALID,915.581,VALID,0,VALID,100,VALID,0,VALID,19.3489,VALID,329,VALID,0,
2008-11-08, 01:42:00,VALID,915.564,VALID,0,VALID,100,VALID,0.0169808,VALID,19.3327,VALID,1,VALID,0.301562,
2008-11-08, 01:43:00,VALID,915.577,VALID,0,VALID,100,VALID,-0.0169808,VALID,19.287,VALID,31,VALID,0.0281613,
2008-11-08, 01:44:00,VALID,915.565,VALID,0,VALID,100,VALID,0,VALID,19.284,VALID,149,VALID,0,
2008-11-08, 01:45:00,VALID,915.562,VALID,0,VALID,100,VALID,-0.0339617,VALID,19.271,VALID,111,VALID,0,
2008-11-08, 01:46:00,VALID,915.534,VALID,0,VALID,100,VALID,-0.0339617,VALID,19.2646,VALID,74,VALID,0.103423,
2008-11-08, 01:47:00,VALID,915.542,VALID,0,VALID,100,VALID,0,VALID,19.2381,VALID,322,VALID,0.00186012,
2008-11-08, 01:48:00,VALID,915.555,VALID,0,VALID,100,VALID,0,VALID,19.2449,VALID,319,VALID,0,
2008-11-08, 01:49:00,VALID,915.573,VALID,0,VALID,100,VALID,0,VALID,19.2351,VALID,319,VALID,0,
2008-11-08, 01:50:00,VALID,915.572,VALID,0,VALID,100,VALID,-0.101885,VALID,19.2401,VALID,321,VALID,0,
2008-11-08, 01:51:00,VALID,915.574,VALID,0,VALID,100,VALID,-0.101885,VALID,19.2234,VALID,28,VALID,0,
2008-11-08, 01:52:00,VALID,915.591,VALID,0,VALID,100,VALID,-0.101885,VALID,19.2268,VALID,25,VALID,0,
2008-11-08, 01:53:00,VALID,915.594,VALID,0,VALID,100,VALID,-0.101885,VALID,19.2333,VALID,24,VALID,0,
2008-11-08, 01:54:00,VALID,915.588,VALID,0,VALID,100,VALID,-0.118866,VALID,19.2266,VALID,24,VALID,0,
2008-11-08, 01:55:00,VALID,915.595,VALID,0,VALID,100,VALID,-0.101885,VALID,19.2301,VALID,24,VALID,0,
2008-11-08, 01:56:00,VALID,915.602,VALID,0,VALID,100,VALID,-0.118866,VALID,19.2271,VALID,292,VALID,0,
2008-11-08, 01:57:00,VALID,915.595,VALID,0,VALID,100,VALID,-0.118866,VALID,19.2044,VALID,233,VALID,0,
2008-11-08, 01:58:00,VALID,915.593,VALID,0,VALID,100,VALID,-0.101885,VALID,19.1979,VALID,233,VALID,0,
2008-11-08, 01:59:00,VALID,915.594,VALID,0,VALID,100,VALID,-0.0849042,VALID,19.1972,VALID,233,VALID,0,
2008-11-08, 02:00:00,VALID,915.591,VALID,0,VALID,100,VALID,-0.101885,VALID,19.1944,VALID,235,VALID,0,
2008-11-08, 02:01:00,VALID,915.587,VALID,0,VALID,100,VALID,-0.0679233,VALID,19.1934,VALID,284,VALID,0,
2008-11-08, 02:02:00,VALID,915.583,VALID,0,VALID,100,VALID,-0.101885,VALID,19.1912,VALID,292,VALID,0,
2008-11-08, 02:03:00,VALID,915.58,VALID,0,VALID,100,VALID,-0.118866,VALID,19.1647,VALID,292,VALID,0,
2008-11-08, 02:04:00,VALID,915.558,VALID,0,VALID,100,VALID,-0.101885,VALID,19.1814,VALID,293,VALID,0,
2008-11-08, 02:05:00,VALID,915.576,VALID,0,VALID,100,VALID,-0.0849042,VALID,19.1877,VALID,5,VALID,0,
2008-11-08, 02:06:00,VALID,915.554,VALID,0,VALID,100,VALID,-0.101885,VALID,19.1745,VALID,18,VALID,0,
2008-11-08, 02:07:00,VALID,915.551,VALID,0,VALID,100,VALID,-0.101885,VALID,19.1515,VALID,24,VALID,0,
2008-11-08, 02:08:00,VALID,915.547,VALID,0,VALID,100,VALID,-0.0679233,VALID,19.1747,VALID,24,VALID,0,
2008-11-08, 02:09:00,VALID,915.552,VALID,0,VALID,100,VALID,-0.101885,VALID,19.1809,VALID,23,VALID,0,
2008-11-08, 02:10:00,VALID,915.551,VALID,0,VALID,100,VALID,-0.118866,VALID,19.1849,VALID,21,VALID,0,
2008-11-08, 02:11:00,VALID,915.554,VALID,0,VALID,100,VALID,-0.118866,VALID,19.1717,VALID,21,VALID,0,
2008-11-08, 02:12:00,VALID,915.552,VALID,0,VALID,100,VALID,-0.152827,VALID,19.1849,VALID,21,VALID,0,
2008-11-08, 02:13:00,VALID,915.536,VALID,0,VALID,100,VALID,-0.101885,VALID,19.1784,VALID,23,VALID,0,
2008-11-08, 02:14:00,VALID,915.532,VALID,0,VALID,100,VALID,-0.135847,VALID,19.1684,VALID,24,VALID,0.0268429,
2008-11-08, 02:15:00,VALID,915.542,VALID,0,VALID,100,VALID,-0.101885,VALID,19.1717,VALID,24,VALID,0.0276163,
2008-11-08, 02:16:00,VALID,915.541,VALID,0,VALID,100,VALID,-0.101885,VALID,19.1652,VALID,24,VALID,0,
2008-11-08, 02:17:00,VALID,915.547,VALID,0,VALID,100,VALID,-0.118866,VALID,19.136,VALID,24,VALID,0,
2008-11-08, 02:18:00,VALID,915.54,VALID,0,VALID,100,VALID,-0.135847,VALID,19.0966,VALID,23,VALID,0,
2008-11-08, 02:19:00,VALID,915.523,VALID,0,VALID,100,VALID,-0.101885,VALID,19.0971,VALID,21,VALID,0,
2008-11-08, 02:20:00,VALID,915.525,VALID,0,VALID,100,VALID,-0.118866,VALID,19.0711,VALID,7,VALID,0,
2008-11-08, 02:21:00,VALID,915.511,VALID,0,VALID,100,VALID,-0.118866,VALID,19.0609,VALID,7,VALID,0,
2008-11-08, 02:22:00,VALID,915.49,VALID,0,VALID,100,VALID,-0.101885,VALID,19.0547,VALID,7,VALID,0,
2008-11-08, 02:23:00,VALID,915.462,VALID,0,VALID,100,VALID,-0.101885,VALID,19.0259,VALID,19,VALID,0.0106534,
2008-11-08, 02:24:00,VALID,915.43,VALID,0,VALID,100,VALID,-0.101885,VALID,19.0217,VALID,37,VALID,0,
2008-11-08, 02:25:00,VALID,915.41,VALID,0,VALID,100,VALID,-0.101885,VALID,19.0549,VALID,24,VALID,0.0328125,
2008-11-08, 02:26:00,VALID,915.4,VALID,0,VALID,100,VALID,-0.0849042,VALID,19.0277,VALID,16,VALID,0,
2008-11-08, 02:27:00,VALID,915.37,VALID,0,VALID,100,VALID,0.0169808,VALID,19.0298,VALID,18,VALID,0.0794271,
2008-11-08, 02:28:00,VALID,915.344,VALID,0,VALID,100,VALID,0.0169808,VALID,19.0338,VALID,28,VALID,0.130269,
2008-11-08, 02:29:00,VALID,915.324,VALID,0,VALID,100,VALID,0,VALID,19.0145,VALID,11,VALID,0,
2008-11-08, 02:30:00,VALID,915.315,VALID,0,VALID,100,VALID,0,VALID,19.0083,VALID,1,VALID,0,
2008-11-08, 02:31:00,VALID,915.309,VALID,0,VALID,100,VALID,0,VALID,19.0046,VALID,1,VALID,0,
2008-11-08, 02:32:00,VALID,915.307,VALID,0,VALID,100,VALID,-0.0339617,VALID,18.9881,VALID,1,VALID,0,
2008-11-08, 02:33:00,VALID,915.304,VALID,0,VALID,100,VALID,0.0169808,VALID,18.9554,VALID,16,VALID,0,
2008-11-08, 02:34:00,VALID,915.268,VALID,0,VALID,100,VALID,-0.0169808,VALID,18.9429,VALID,20,VALID,0,
2008-11-08, 02:35:00,VALID,915.266,VALID,0,VALID,100,VALID,-0.0849042,VALID,18.9471,VALID,17,VALID,0,
2008-11-08, 02:36:00,VALID,915.262,VALID,0,VALID,100,VALID,-0.135847,VALID,18.9249,VALID,6,VALID,0,
2008-11-08, 02:37:00,VALID,915.238,VALID,0,VALID,100,VALID,-0.0679233,VALID,18.9279,VALID,21,VALID,0.0614099,
2008-11-08, 02:38:00,VALID,915.228,VALID,0,VALID,100,VALID,-0.101885,VALID,18.9286,VALID,18,VALID,0,
2008-11-08, 02:39:00,VALID,915.229,VALID,0,VALID,100,VALID,-0.101885,VALID,18.9186,VALID,14,VALID,0,
2008-11-08, 02:40:00,VALID,915.232,VALID,0,VALID,100,VALID,-0.101885,VALID,18.9182,VALID,14,VALID,0,
2008-11-08, 02:41:00,VALID,915.237,VALID,0,VALID,100,VALID,-0.101885,VALID,18.9214,VALID,14,VALID,0,
2008-11-08, 02:42:00,VALID,915.212,VALID,0,VALID,100,VALID,-0.118866,VALID,18.9089,VALID,13,VALID,0,
2008-11-08, 02:43:00,VALID,915.21,VALID,0,VALID,100,VALID,-0.118866,VALID,18.8959,VALID,13,VALID,0.0872396,
2008-11-08, 02:44:00,VALID,915.219,VALID,0,VALID,100,VALID,-0.0849042,VALID,18.9054,VALID,13,VALID,0,
2008-11-08, 02:45:00,VALID,915.201,VALID,0,VALID,100,VALID,-0.135847,VALID,18.8885,VALID,13,VALID,0,
2008-11-08, 02:46:00,VALID,915.187,VALID,0,VALID,100,VALID,-0.0849042,VALID,18.8892,VALID,14,VALID,0,
2008-11-08, 02:47:00,VALID,915.179,VALID,0,VALID,100,VALID,-0.118866,VALID,18.8827,VALID,19,VALID,0.0559028,
2008-11-08, 02:48:00,VALID,915.183,VALID,0,VALID,100,VALID,-0.118866,VALID,18.8762,VALID,17,VALID,0,
2008-11-08, 02:49:00,VALID,915.186,VALID,0,VALID,100,VALID,-0.0849042,VALID,18.8788,VALID,17,VALID,0,
2008-11-08, 02:50:00,VALID,915.174,VALID,0,VALID,100,VALID,-0.0339617,VALID,18.8781,VALID,22,VALID,0,
2008-11-08, 02:51:00,VALID,915.17,VALID,0,VALID,100,VALID,-0.0169808,VALID,18.8818,VALID,27,VALID,0,
2008-11-08, 02:52:00,VALID,915.161,VALID,0,VALID,100,VALID,-0.0339617,VALID,18.8651,VALID,27,VALID,0,
2008-11-08, 02:53:00,VALID,915.143,VALID,0,VALID,100,VALID,0,VALID,18.888,VALID,27,VALID,0,
2008-11-08, 02:54:00,VALID,915.13,VALID,0,VALID,100,VALID,0,VALID,18.8781,VALID,27,VALID,0,
2008-11-08, 02:55:00,VALID,915.115,VALID,0,VALID,100,VALID,0,VALID,18.8651,VALID,21,VALID,0,
2008-11-08, 02:56:00,VALID,915.106,VALID,0,VALID,100,VALID,-0.0169808,VALID,18.8519,VALID,14,VALID,0.0755859,
2008-11-08, 02:57:00,VALID,915.107,VALID,0,VALID,100,VALID,0.0169808,VALID,18.8254,VALID,17,VALID,0.0725446,
2008-11-08, 02:58:00,VALID,915.102,VALID,0,VALID,100,VALID,-0.0169808,VALID,18.8354,VALID,17,VALID,0.709413,
2008-11-08, 02:59:00,VALID,915.105,VALID,0,VALID,100,VALID,0.0169808,VALID,18.8319,VALID,26,VALID,0.51582,
2008-11-08, 03:00:00,VALID,915.11,VALID,0,VALID,100,VALID,0,VALID,18.8456,VALID,16,VALID,0.119855,
2008-11-08, 03:01:00,VALID,915.107,VALID,0,VALID,100,VALID,0,VALID,18.8317,VALID,17,VALID,0,
2008-11-08, 03:02:00,VALID,915.106,VALID,0,VALID,100,VALID,0,VALID,18.8254,VALID,26,VALID,0,
2008-11-08, 03:03:00,VALID,915.09,VALID,0,VALID,100,VALID,0.0169808,VALID,18.8222,VALID,37,VALID,0,
2008-11-08, 03:04:00,VALID,915.09,VALID,0,VALID,100,VALID,0,VALID,18.8132,VALID,17,VALID,0.0924479,
2008-11-08, 03:05:00,VALID,915.091,VALID,0,VALID,100,VALID,0,VALID,18.7995,VALID,12,VALID,0,
2008-11-08, 03:06:00,VALID,915.092,VALID,0,VALID,100,VALID,0.0169808,VALID,18.8027,VALID,3,VALID,0,
2008-11-08, 03:07:00,VALID,915.1,VALID,0,VALID,100,VALID,0.0509425,VALID,18.7928,VALID,1,VALID,0,
2008-11-08, 03:08:00,VALID,915.086,VALID,0,VALID,100,VALID,0.0509425,VALID,18.7895,VALID,1,VALID,0,
2008-11-08, 03:09:00,VALID,915.085,VALID,0,VALID,100,VALID,0.0169808,VALID,18.7865,VALID,8,VALID,0,
2008-11-08, 03:10:00,VALID,915.086,VALID,0,VALID,100,VALID,0.0849042,VALID,18.783,VALID,5,VALID,0.00228659,
2008-11-08, 03:11:00,VALID,915.072,VALID,0,VALID,100,VALID,0.0339617,VALID,18.7965,VALID,338,VALID,0.00240385,
2008-11-08, 03:12:00,VALID,915.072,VALID,0,VALID,100,VALID,0.0339617,VALID,18.7865,VALID,354,VALID,0.0301847,
2008-11-08, 03:13:00,VALID,915.048,VALID,0,VALID,100,VALID,0.0339617,VALID,18.7833,VALID,10,VALID,0.00230824,
2008-11-08, 03:14:00,VALID,915.02,VALID,0,VALID,100,VALID,0.0169808,VALID,18.7868,VALID,27,VALID,0.242365,
2008-11-08, 03:15:00,VALID,915.011,VALID,0,VALID,100,VALID,0.0169808,VALID,18.78,VALID,18,VALID,0.222565,
2008-11-08, 03:16:00,VALID,915.005,VALID,0,VALID,100,VALID,-0.0169808,VALID,18.777,VALID,15,VALID,0.0563322,
2008-11-08, 03:17:00,VALID,915.017,VALID,0,VALID,100,VALID,0,VALID,18.7705,VALID,6,VALID,0,
2008-11-08, 03:18:00,VALID,914.982,VALID,0,VALID,100,VALID,0,VALID,18.7738,VALID,359,VALID,0,
2008-11-08, 03:19:00,VALID,914.981,VALID,0,VALID,100,VALID,-0.0509425,VALID,18.7708,VALID,6,VALID,0.0012718,
2008-11-08, 03:20:00,VALID,914.953,VALID,0,VALID,100,VALID,0,VALID,18.764,VALID,344,VALID,0.0376736,
2008-11-08, 03:21:00,VALID,914.938,VALID,0,VALID,100,VALID,-0.0169808,VALID,18.7636,VALID,357,VALID,0.00169837,
2008-11-08, 03:22:00,VALID,914.936,VALID,0,VALID,100,VALID,0,VALID,18.7638,VALID,360,VALID,0.0741279,
2008-11-08, 03:23:00,VALID,914.903,VALID,0,VALID,100,VALID,-0.0169808,VALID,18.7773,VALID,6,VALID,0.104469,
2008-11-08, 03:24:00,VALID,914.906,VALID,0,VALID,100,VALID,0,VALID,18.7543,VALID,17,VALID,0.189258,
2008-11-08, 03:25:00,VALID,914.895,VALID,0,VALID,100,VALID,0,VALID,18.7441,VALID,8,VALID,0,
2008-11-08, 03:26:00,VALID,914.885,VALID,0,VALID,100,VALID,0,VALID,18.758,VALID,11,VALID,0,
2008-11-08, 03:27:00,VALID,914.857,VALID,0,VALID,100,VALID,0.0339617,VALID,18.7573,VALID,9,VALID,0,
2008-11-08, 03:28:00,VALID,914.849,VALID,0,VALID,100,VALID,0.0169808,VALID,18.7671,VALID,15,VALID,0,
2008-11-08, 03:29:00,VALID,914.848,VALID,0,VALID,100,VALID,0,VALID,18.7735,VALID,28,VALID,0,
2008-11-08, 03:30:00,VALID,914.851,VALID,0,VALID,100,VALID,0,VALID,18.7833,VALID,26,VALID,0,
2008-11-08, 03:31:00,VALID,914.833,VALID,0,VALID,100,VALID,0,VALID,18.7863,VALID,22,VALID,0.181504,
2008-11-08, 03:32:00,VALID,914.836,VALID,0,VALID,100,VALID,0.0169808,VALID,18.8025,VALID,24,VALID,0.162919,
2008-11-08, 03:33:00,VALID,914.84,VALID,0,VALID,100,VALID,0.0339617,VALID,18.8349,VALID,21,VALID,0.0457317,
2008-11-08, 03:34:00,VALID,914.832,VALID,0,VALID,100,VALID,0.0339617,VALID,18.8641,VALID,10,VALID,0.504687,
2008-11-08, 03:35:00,VALID,914.817,VALID,0,VALID,100,VALID,0.0339617,VALID,18.9232,VALID,24,VALID,0,
2008-11-08, 03:36:00,VALID,914.807,VALID,0,VALID,100,VALID,0.0339617,VALID,18.936,VALID,20,VALID,0,
2008-11-08, 03:37:00,VALID,914.792,VALID,0,VALID,100,VALID,0.0169808,VALID,18.9357,VALID,20,VALID,0,
2008-11-08, 03:38:00,VALID,914.783,VALID,0,VALID,100,VALID,0.0169808,VALID,18.9487,VALID,25,VALID,0,
2008-11-08, 03:39:00,VALID,914.781,VALID,0,VALID,100,VALID,0,VALID,18.9554,VALID,15,VALID,0,
2008-11-08, 03:40:00,VALID,914.758,VALID,0,VALID,100,VALID,0,VALID,18.9554,VALID,10,VALID,0,
2008-11-08, 03:41:00,VALID,914.748,VALID,0,VALID,100,VALID,0.0169808,VALID,18.926,VALID,16,VALID,0,
2008-11-08, 03:42:00,VALID,914.735,VALID,0,VALID,100,VALID,0.0169808,VALID,18.913,VALID,16,VALID,0,
2008-11-08, 03:43:00,VALID,914.724,VALID,0,VALID,100,VALID,0.0169808,VALID,18.9163,VALID,12,VALID,0,
2008-11-08, 03:44:00,VALID,914.726,VALID,0,VALID,100,VALID,0.0509425,VALID,18.8963,VALID,358,VALID,0,
2008-11-08, 03:45:00,VALID,914.715,VALID,0,VALID,100,VALID,0.0169808,VALID,18.9,VALID,353,VALID,0,
2008-11-08, 03:46:00,VALID,914.7,VALID,0,VALID,100,VALID,0.0169808,VALID,18.8866,VALID,353,VALID,0,
2008-11-08, 03:47:00,VALID,914.694,VALID,0,VALID,100,VALID,-0.0169808,VALID,18.904,VALID,360,VALID,0,
2008-11-08, 03:48:00,VALID,914.682,VALID,0,VALID,100,VALID,0,VALID,18.8838,VALID,11,VALID,0,
2008-11-08, 03:49:00,VALID,914.67,VALID,0,VALID,100,VALID,-0.0169808,VALID,18.8711,VALID,17,VALID,0.0216206,